Regional Weather Roundup
Issued by NWS Spokane, WA

Home | Current Version | Previous Version | Text Only | Print | Product List | Glossary On
Versions: 1 2 3 4 5 6 7 8 9 10 11 12 13 14 15 16 17 18 19 20 21 22 23 24 25 26 27 28 29 30 31 32 33 34 35 36 37 38 39 40 41 42 43 44 45 46 47 48 49 50
140
NZUS01 KOTX 220110
RWROTX

Eastern Washington/Northern Idaho Roundup
National Weather Service, Spokane WA
500 PM PST SUN JAN 21 2018

Note: "fair" indicated few or no clouds below 12,000 feet with no
significant weather and/or obstructions to visibility.

...Northeast Washington and Northern Idaho Panhandle...

CITY           SKY/WX    TMP DP  RH WIND       PRES   REMARKS
Spokane Intl   FLURRIES  35  33  92 S8        29.95R WCI  29
Spokane Downto CLOUDY    40  31  70 S13       29.97S
Coeur d Alene  CLOUDY    39  28  64 S13G18    29.96F
Deer Park      MIX PCPN  36  31  82 S17       29.96S
Sandpoint      CLOUDY    36  32  87 CALM      29.97S
Bonners Ferry  CLOUDY    37  28  70 CALM      29.95F

...Southeast Washington and southern Idaho Panhandle...

CITY           SKY/WX    TMP DP  RH WIND       PRES   REMARKS
Walla Walla    CLOUDY    50  33  52 S25G33    29.95R
Pullman/Moscow FLURRIES  38  31  76 S15       29.99F
Lewiston       CLOUDY    43  31  62 CALM      30.03R
Lowell           N/A     37  35  92 NW5       30.10S
Grangeville    CLOUDY    36  25  64 S13G18    30.00S

...Columbia Basin...

CITY           SKY/WX    TMP DP  RH WIND       PRES   REMARKS
Ephrata        CLOUDY    40  35  83 SE6       29.91S
Moses Lake     CLOUDY    40  37  89 S15       29.91S
Pasco          CLOUDY    45  38  76 E12       29.97R
Richland       CLOUDY    46  40  78 NE7       29.97R
Hermiston      CLOUDY    47  39  74 NW5       29.96R
Pendleton      CLOUDY    45  34  65 S13       29.96R

...East Slopes Cascades...

CITY           SKY/WX    TMP DP  RH WIND       PRES   REMARKS
The Dalles     PTCLDY    42  38  85 N16       30.00R
Yakima         PTCLDY    45  34  65 MISG      29.92R
Ellensburg     MOCLDY    38  33  82 SE5       29.89R
Stampede Pass  FLURRIES  31  30  96 CALM      29.83R
Wenatchee      LGT RAIN  37  34  89 CALM      29.90R
Omak           CLOUDY    36  35  96 S16       29.91F
Sunnyside      CLOUDY    44  35  70 SE8       29.94R

...Southern British Columbia...

CITY           SKY/WX    TMP DP  RH WIND       PRES   REMARKS
Penticton      LGT RAIN  37  34  87 S23       29.85S
Castlegar      LGT RAIN  34  32  93 N2        29.94F
Cranbrook      CLOUDY    34  25  69 S6        29.92F WCI  29
Osoyoos          N/A     34  34 100 S2          N/A
Creston          N/A     37  30  75 S3          N/A

...Western Montana...

CITY           SKY/WX    TMP DP  RH WIND       PRES   REMARKS
Kalispell      MOCLDY    30  21  69 S5        30.00F WCI  25
Missoula       MOCLDY    35  20  54 E12       30.04F WCI  27

...Neighboring Cities...

CITY           SKY/WX    TMP DP  RH WIND       PRES   REMARKS
Seattle        CLOUDY    42  38  85 S15       29.92F
Portland       CLOUDY    48  42  80 S10       30.02R
Boise          CLOUDY    39  24  55 SE12      30.17S
Great Falls    CLEAR     32  15  49 SW22G35   29.95S WCI  19
Calgary        PTCLDY    32  19  59 VRB2      29.66F



USA.gov is the U.S. government's official web portal to all federal, state and local government web resources and services.